Location: Fontevrault
(47.1823°N, 0.0493°E)
Time: 04:38:03
(UTC+00:00)

Uosat 12 SS-18 rocket - Pass Details

Date: 29 October 2021
Orbit: 579 x 1405 km, 64.6° (Epoch: 01 December)

Event Time Altitude Azimuth Distance (km) Brightness Sun altitude
Rises 21:21:56 0° 321° (NW) 3,801 8.8 -45.4°
Reaches altitude 10° 21:24:33 10° 328° (NNW) 2,963 8.0 -45.8°
Enters shadow 21:27:01 23° 340° (NNW) 2,266 7.2 -46.1°
